Weather History for Montauk, NY

Change the Weather History Date:

Friday, July 19, 2013

  Actual Average (KHTO) Record (KHTO)
Temperature  
Mean Temperature 83 °F -  
Max Temperature 89 °F 81 °F 93 °F (1977)
Min Temperature 78 °F 65 °F 56 °F (1939)
Cooling Degree Days 18    
Growing Degree Days 33 (Base 50)    
Moisture  
Dew Point 75 °F    
Average Humidity 81    
Maximum Humidity 93    
Minimum Humidity 70    
Precipitation  
Precipitation 0.00 in - - ()
Sea Level Pressure  
Sea Level Pressure 29.90 in    
Wind  
Wind Speed 6 mph (SSW)    
Max Wind Speed 13 mph    
Max Gust Speed 25 mph    
Averages and records for this station are not official NWS values.
T = Trace of Precipitation, MM = Missing Value Source: NWS Daily Summary

Daily Weather History Graph

Daily Weather History Graph

Search for Another Location

Airport:

Trip Planner

Search our weather history database for the weather conditions in past years. The results will help you decide how hot, cold, wet, or windy it might be!

Date:

Astronomy

Jul. 19, 2013 Rise Set
Actual Time 5:31 AM EDT 8:15 PM EDT
Civil Twilight 4:59 AM EDT 8:47 PM EDT
Nautical Twilight 4:19 AM EDT 9:28 PM EDT
Astronomical Twilight 3:32 AM EDT 10:14 PM EDT
Moon 5:15 PM EDT (7/19) 2:10 AM EDT (7/19)
Length of Visible Light 15h 48m
Length of Day
14h 44m
Waxing Gibbous, 86% of the Moon is Illuminated
Jul 19
Waxing Gibbous
Jul 22
Full
Jul 29
Last Quarter
Aug 6
New
Aug 14
First Quarter

Hourly Weather History & Observations

Time (EDT) Temp. Heat Index Dew Point Humidity Pressure Visibility Wind Dir Wind Speed Gust Speed Precip Events Conditions
12:54 AM 78.1 °F - 75.0 °F 90% 29.97 in - SSE 3.5 mph - N/A   Unknown
1:54 AM 78.1 °F - 75.9 °F 93% 29.97 in - SSW 5.8 mph - N/A   Unknown
2:54 AM 79.0 °F - 75.0 °F 88% 29.96 in - Variable 3.5 mph - N/A   Unknown
3:54 AM 79.0 °F - 73.9 °F 84% 29.96 in - WSW 4.6 mph - N/A   Unknown
4:54 AM 78.1 °F - 73.9 °F 87% 29.96 in - SW 3.5 mph - N/A   Unknown
5:54 AM 78.1 °F - 75.0 °F 90% 29.95 in - SSW 3.5 mph - N/A   Unknown
6:54 AM 80.1 °F 85.1 °F 75.0 °F 85% 29.94 in - Variable 4.6 mph - N/A   Unknown
7:54 AM 82.0 °F 89.4 °F 75.9 °F 82% 29.95 in - SSW 5.8 mph - N/A   Unknown
8:54 AM 82.9 °F 90.8 °F 75.9 °F 79% 29.95 in - Variable 5.8 mph - N/A   Unknown
9:54 AM 86.0 °F 96.9 °F 77.0 °F 74% 29.95 in - SW 4.6 mph - N/A   Unknown
10:54 AM 88.0 °F 100.2 °F 77.0 °F 70% 29.94 in - South 4.6 mph - N/A   Unknown
11:54 AM 87.1 °F 98.8 °F 77.0 °F 72% 29.93 in - South 8.1 mph - N/A   Unknown
12:54 PM 86.0 °F 96.9 °F 77.0 °F 74% 29.92 in - SSW 10.4 mph 16.1 mph N/A   Unknown
1:54 PM 87.1 °F 98.8 °F 77.0 °F 72% 29.91 in - SW 8.1 mph 17.3 mph N/A   Unknown
2:54 PM 87.1 °F 98.8 °F 77.0 °F 72% 29.88 in - SSW 10.4 mph 20.7 mph N/A   Unknown
3:54 PM 84.0 °F 92.6 °F 75.9 °F 76% 29.86 in - SSW 11.5 mph 17.3 mph N/A   Unknown
4:54 PM 84.0 °F 92.6 °F 75.9 °F 76% 29.84 in - SSW 10.4 mph - N/A   Unknown
5:54 PM 82.0 °F 87.9 °F 73.9 °F 76% 29.83 in - SSW 10.4 mph 19.6 mph N/A   Unknown
6:54 PM 81.0 °F 86.7 °F 75.0 °F 82% 29.82 in - SSW 12.7 mph 23.0 mph N/A   Unknown
7:54 PM 80.1 °F 84.2 °F 73.0 °F 79% 29.83 in - SW 10.4 mph 21.9 mph N/A   Unknown
8:54 PM 79.0 °F - 73.0 °F 82% 29.83 in - SW 12.7 mph 25.3 mph N/A   Unknown
9:54 PM 79.0 °F - 73.0 °F 82% 29.85 in - SW 11.5 mph 25.3 mph N/A   Unknown
10:54 PM 79.0 °F - 73.9 °F 84% 29.83 in - SW 10.4 mph 21.9 mph N/A   Unknown
11:54 PM 79.0 °F - 73.9 °F 84% 29.82 in - SW 12.7 mph 21.9 mph N/A   Unknown